Grand Junction, CO

7:29 PM MDT on August 22, 2019 (GMT -0600)
Walker

Weather History for KGJT - May, 2019

Change the Weather History Date:

Thursday, May 2, 2019

  Actual Average Record
Temperature  
Mean Temperature 48 °F 57 °F  
Max Temperature 64 °F 71 °F 88 °F (1947)
Min Temperature 32 °F 43 °F 26 °F (1970)
Degree Days  
Heating Degree Days 17 8  
Month to date heating degree days 35 17  
Since 1 July heating degree days 5432 5451  
Cooling Degree Days 0 0  
Month to date cooling degree days 0 0  
Year to date cooling degree days 1 3  
Moisture  
Dew Point 27 °F    
Average Humidity 52    
Maximum Humidity 89    
Minimum Humidity 14    
Precipitation  
Precipitation 0.00 in 0.03 in 0.91 in (1934)
Month to date precipitation 0.03 0.06  
Year to date precipitation 5.08 3.01  
Snow  
Snow 0.00 in 0.00 in 0.30 in (1899)
Month to date snowfall 0.0 0.0  
Since 1 July snowfall 17.4 19.0  
Snow Depth 0.00 in    
Sea Level Pressure  
Sea Level Pressure 29.99 in    
Wind  
Wind Speed 6 mph (NNE)    
Max Wind Speed 21 mph    
Max Gust Speed 28 mph    
Visibility 10 miles    
Events      
T = Trace of Precipitation, MM = Missing Value Source: NWS Daily Summary

Daily Weather History Graph

Daily Weather History Graph

Search for Another Location

Airport or City:

Astronomy

May. 02, 2019 Rise Set
Actual Time 6:14 AM MDT 8:07 PM MDT
Civil Twilight 5:45 AM MDT 8:37 PM MDT
Nautical Twilight 5:10 AM MDT 9:12 PM MDT
Astronomical Twilight 4:33 AM MDT 9:50 PM MDT
Moon 5:27 AM MDT (5/2) 5:59 PM MDT (5/2)
Length of Visible Light 14h 51m
Length of Day
13h 53m
Waning Crescent, 5% of the Moon is Illuminated
May 2
Waning Crescent
May 4
New
May 11
First Quarter
May 18
Full
May 26
Last Quarter

Hourly Weather History & Observations

Time (MDT) Temp. Windchill Dew Point Humidity Pressure Visibility Wind Dir Wind Speed Gust Speed Precip Events Conditions
12:53 AM 37.9 °F 34.4 °F 30.9 °F 76% 30.03 in 10.0 mi East 4.6 mph - N/A   Clear
1:53 AM 35.1 °F - 30.9 °F 85% 30.04 in 10.0 mi Calm Calm - N/A   Clear
2:53 AM 34.0 °F 31.0 °F 30.9 °F 89% 30.04 in 10.0 mi East 3.5 mph - N/A   Clear
3:53 AM 33.1 °F 28.7 °F 30.0 °F 89% 30.05 in 10.0 mi East 4.6 mph - N/A   Clear
4:53 AM 35.1 °F 30.1 °F 30.9 °F 85% 30.05 in 10.0 mi East 5.8 mph - N/A   Clear
5:53 AM 32.0 °F 28.7 °F 28.9 °F 88% 30.07 in 10.0 mi ESE 3.5 mph - N/A   Clear
6:53 AM 36.0 °F 33.3 °F 30.9 °F 82% 30.07 in 10.0 mi Variable 3.5 mph - N/A   Scattered Clouds
7:53 AM 41.0 °F - 35.1 °F 79% 30.07 in 10.0 mi Calm Calm - N/A   Scattered Clouds
8:53 AM 48.0 °F - 32.0 °F 54% 30.06 in 10.0 mi SE 6.9 mph - N/A   Clear
9:53 AM 48.9 °F - 34.0 °F 56% 30.06 in 10.0 mi South 5.8 mph - N/A   Clear
10:53 AM 52.0 °F - 32.0 °F 47% 30.04 in 10.0 mi Calm Calm - N/A   Clear
11:53 AM 55.9 °F - 28.9 °F 36% 30.02 in 10.0 mi Calm Calm - N/A   Clear
12:53 PM 59.0 °F - 23.0 °F 25% 29.99 in 10.0 mi WNW 9.2 mph - N/A   Clear
1:53 PM 60.1 °F - 23.0 °F 24% 29.96 in 10.0 mi WNW 9.2 mph - N/A   Clear
2:53 PM 61.0 °F - 23.0 °F 23% 29.95 in 10.0 mi WNW 9.2 mph - N/A   Clear
3:53 PM 61.0 °F - 24.1 °F 24% 29.92 in 10.0 mi North 4.6 mph 16.1 mph N/A   Clear
4:53 PM 64.0 °F - 21.0 °F 19% 29.88 in 10.0 mi NW 19.6 mph - N/A   Clear
5:53 PM 62.1 °F - 12.0 °F 14% 29.89 in 10.0 mi WNW 16.1 mph 25.3 mph N/A   Clear
6:53 PM 61.0 °F - 16.0 °F 17% 29.89 in 10.0 mi WNW 10.4 mph - N/A   Clear
7:53 PM 55.0 °F - 27.0 °F 34% 29.91 in 10.0 mi NNW 6.9 mph - N/A   Clear
8:53 PM 50.0 °F - 30.9 °F 48% 29.92 in 10.0 mi NE 8.1 mph - N/A   Clear
9:53 PM 48.0 °F - 30.9 °F 52% 29.94 in 10.0 mi Calm Calm - N/A   Clear
10:53 PM 46.0 °F 43.1 °F 30.9 °F 56% 29.96 in 10.0 mi NE 5.8 mph - N/A   Clear
11:53 PM 46.0 °F 44.8 °F 28.9 °F 51% 29.96 in 10.0 mi NE 3.5 mph - N/A   Clear